Voltar ao catálogo

SL-12 DEB

LostHEO
NORAD 29443·DEBRIS·🇷🇺 Russia

Lançado May 31, 1989 de Baikonur Cosmodrome

Loading…

Próximas Passagens (próximas 24 horas)

TLE

ObsoletoSource: Space-Track

Época: Apr 2, 2019, 17:20 UTC

1 29443U 89039CS  19092.72263944 -.00000031  00000-0  00000-0 0  9994
2 29443  62.6071 232.0821 3609729 154.9158 228.2201  4.91698866199804

Acompanhe SL-12 DEB em tempo real com AllMySat

Download on the App Store